EW6183 Weather Reports


time (UTC)temp
C
wind
direction
speed
KPH
gust
KPH
rain 1hr
cm
rain 24hr
cm
rain mn
cm
humidity
%
barometer
mb
20260506201557 18 59 1.6 8.0 0.00 0.00 0.00 78 1008.0
20260506200055 18 232 4.8 12.9 0.00 0.00 0.00 77 1008.0
20260506194555 18 176 3.2 12.9 0.00 0.00 0.00 78 1008.3
20260506193058 17 250 3.2 9.7 0.00 0.00 0.00 79 1008.4
20260506191552 17 188 1.6 6.4 0.00 0.00 0.00 80 1008.5
20260506190051 18 194 3.2 14.5 0.00 0.00 0.00 79 1008.7
20260506184551 18 260 1.6 12.9 0.00 0.00 0.00 76 1008.6
20260506183058 18 238 1.6 12.9 0.00 0.00 0.00 75 1008.7
20260506181649 20 224 4.8 19.3 0.00 0.00 0.00 70 1008.9
20260506180050 20 256 6.4 17.7 0.00 0.00 0.00 66 1009.0
20260506174547 21 260 4.8 14.5 0.00 0.00 0.00 66 1008.9
20260506173116 21 315 4.8 16.1 0.00 0.00 0.00 68 1009.0
20260506171552 21 137 4.8 14.5 0.00 0.00 0.00 69 1009.2
20260506170045 20 209 3.2 22.5 0.00 0.00 0.00 69 1009.3
20260506164542 20 206 3.2 14.5 0.00 0.00 0.00 69 1009.7
20260506163040 20 180 1.6 16.1 0.00 0.00 0.00 68 1010.3
20260506161538 20 175 4.8 29.0 0.00 0.00 0.00 66 1010.5
20260506160041 21 257 1.6 11.3 0.00 0.00 0.00 63 1010.5
20260506154538 21 184 3.2 11.3 0.00 0.00 0.00 61 1010.5
20260506153037 21 259 4.8 12.9 0.00 0.00 0.00 61 1010.5
20260506151536 21 154 4.8 12.9 0.00 0.00 0.00 62 1010.5
20260506150035 21 199 3.2 25.7 0.00 0.00 0.00 61 1010.6
20260506144534 21 184 3.2 33.8 0.00 0.00 0.00 60 1010.6
20260506143035 21 219 4.8 27.4 0.00 0.00 0.00 61 1010.5
20260506141532 21 192 1.6 24.1 0.00 0.00 0.00 61 1010.5
20260506140034 21 178 6.4 20.9 0.00 0.00 0.00 62 1010.3
20260506134529 21 194 6.4 14.5 0.00 0.00 0.00 63 1010.5
20260506133024 21 198 3.2 16.1 0.00 0.00 0.00 65 1010.8
20260506131539 20 86 4.8 12.9 0.00 0.00 0.00 69 1010.9
20260506130032 20 190 4.8 17.7 0.00 0.00 0.00 70 1011.0
20260506124514 18 218 3.2 9.7 0.00 0.00 0.00 73 1011.1
20260506123009 17 176 1.6 16.1 0.00 0.00 0.00 76 1011.1
20260506121508 17 163 3.2 8.0 0.00 0.00 0.00 77 1011.2
20260506120013 17 213 1.6 12.9 0.00 0.00 0.00 78 1011.2
20260506114507 16 208 3.2 11.3 0.00 0.00 0.00 79 1011.3
20260506113006 15 150 1.6 12.9 0.00 0.00 0.00 80 1011.4
20260506111505 15 166 3.2 16.1 0.00 0.00 0.00 80 1011.5
20260506110004 15 228 1.6 8.0 0.00 0.00 0.00 80 1011.4
20260506104504 14 144 3.2 8.0 0.00 0.00 0.00 80 1011.4
20260506103003 14 159 1.6 6.4 0.00 0.00 0.00 80 1011.4
20260506101505 14 128 1.6 4.8 0.00 0.00 0.00 80 1011.4
20260506100101 15 285 1.6 8.0 0.00 0.00 0.00 81 1011.1
20260506094624 15 94 3.2 9.7 0.00 0.00 0.00 81 1011.1
20260506093058 15 194 3.2 11.3 0.00 0.00 0.00 80 1011.2
20260506091556 15 186 1.6 11.3 0.00 0.00 0.00 80 1011.3
20260506090054 15 130 3.2 12.9 0.00 0.00 0.00 81 1011.4
20260506084553 15 146 1.6 14.5 0.00 0.00 0.00 80 1011.5
20260506083053 15 174 1.6 9.7 0.00 0.00 0.00 80 1011.5
20260506081554 15 177 3.2 11.3 0.00 0.00 0.00 80 1011.5
20260506073047 16 140 3.2 12.9 0.00 0.00 0.00 80 1011.4
20260506071547 16 165 3.2 16.1 0.00 0.00 0.00 80 1011.7
20260506061542 16 171 3.2 11.3 0.00 0.00 0.00 80 1011.8
20260506044530 17 158 3.2 9.7 0.00 0.00 0.00 75 1012.1
20260506043029 17 239 0.0 19.3 0.00 0.00 0.00 74 1012.1
20260506041528 17 190 3.2 9.7 0.00 0.00 0.00 74 1012.0
20260506040026 17 148 3.2 9.7 0.00 0.00 0.00 74 1012.1
20260506034526 17 91 3.2 9.7 0.00 0.00 0.00 73 1012.1
20260506033024 17 144 3.2 11.3 0.00 0.00 0.00 72 1012.1
20260506031525 17 216 1.6 11.3 0.00 0.00 0.00 72 1012.1
20260506030030 18 179 1.6 12.9 0.00 0.00 0.00 72 1012.1
20260506024539 18 138 3.2 16.1 0.00 0.00 0.00 71 1012.1
20260506023023 18 236 1.6 17.7 0.00 0.00 0.00 69 1012.2
20260506021523 18 171 3.2 17.7 0.00 0.00 0.00 68 1012.3
20260506020022 18 128 4.8 22.5 0.00 0.00 0.00 67 1012.3
20260506014524 18 282 3.2 14.5 0.00 0.00 0.00 66 1012.2
20260506013021 18 179 3.2 12.9 0.00 0.00 0.00 64 1012.0
20260506011520 19 167 4.8 16.1 0.00 0.00 0.00 63 1012.0
20260506010021 19 137 3.2 17.7 0.00 0.00 0.00 62 1011.7
20260506004520 20 117 3.2 14.5 0.00 0.00 0.00 61 1011.6
20260506003018 20 140 3.2 16.1 0.00 0.00 0.00 60 1011.5
20260506001518 20 177 3.2 12.9 0.00 0.00 0.00 59 1011.4
20260506000016 21 209 1.6 12.9 0.00 0.00 0.00 57 1011.3
20260505234519 21 174 3.2 14.5 0.00 0.00 0.00 55 1011.0
20260505233009 22 186 3.2 12.9 0.00 0.00 0.00 52 1010.9
20260505231506 23 184 4.8 11.3 0.00 0.00 0.00 49 1010.5
20260505230020 23 164 3.2 11.3 0.00 0.00 0.00 47 1010.4
20260505224505 24 257 4.8 19.3 0.00 0.00 0.00 46 1010.3
20260505223004 25 186 4.8 14.5 0.00 0.00 0.00 44 1009.9
20260505221504 26 232 6.4 20.9 0.00 0.00 0.00 39 1009.9
20260505220003 26 241 4.8 20.9 0.00 0.00 0.00 35 1009.7
20260505214504 27 215 4.8 19.3 0.00 0.00 0.00 34 1009.6
20260505213002 27 202 9.7 20.9 0.00 0.00 0.00 30 1009.5
20260505211502 27 201 6.4 19.3 0.00 0.00 0.00 32 1009.4
20260505210001 28 190 4.8 24.1 0.00 0.00 0.00 32 1009.1
20260505204600 28 207 6.4 25.7 0.00 0.00 0.00 33 1009.2
20260505203105 28 109 6.4 24.1 0.00 0.00 0.00 34 1009.2